TimeMDT,TemperatureF,Dew PointF,Humidity,Sea Level PressureIn,VisibilityMPH,Wind Direction,Wind SpeedMPH,Gust SpeedMPH,PrecipitationIn,Events,Conditions,WindDirDegrees,DateUTC
12:35 AM,47.8,40.1,75,30.13,10.0,Calm,Calm,-,N/A,,Unknown,0,2012-10-16 06:35:00
12:55 AM,47.8,39.6,73,30.12,10.0,ENE,5.8,-,N/A,,Unknown,70,2012-10-16 06:55:00
1:15 AM,49.5,39.2,68,30.13,10.0,Calm,Calm,-,N/A,,Unknown,0,2012-10-16 07:15:00
1:35 AM,48.0,38.3,69,30.13,10.0,Calm,Calm,-,N/A,,Unknown,0,2012-10-16 07:35:00
1:55 AM,45.9,37.8,73,30.14,10.0,Calm,Calm,-,N/A,,Unknown,0,2012-10-16 07:55:00
2:15 AM,44.1,38.3,80,30.14,10.0,ENE,3.5,-,N/A,,Unknown,60,2012-10-16 08:15:00
2:35 AM,44.1,37.9,79,30.13,10.0,NNE,5.8,-,N/A,,Unknown,30,2012-10-16 08:35:00
2:55 AM,44.4,37.4,76,30.13,10.0,NNE,6.9,-,N/A,,Unknown,30,2012-10-16 08:55:00
3:15 AM,44.8,37.8,76,30.13,10.0,NE,4.6,-,N/A,,Unknown,40,2012-10-16 09:15:00
3:35 AM,44.6,37.4,76,30.12,10.0,ENE,3.5,-,N/A,,Unknown,60,2012-10-16 09:35:00
4:15 AM,44.4,37.6,77,30.11,10.0,NNE,5.8,-,N/A,,Unknown,20,2012-10-16 10:15:00
4:35 AM,44.4,37.2,76,30.11,10.0,East,4.6,-,N/A,,Unknown,100,2012-10-16 10:35:00
5:15 AM,41.0,36.1,83,30.10,10.0,Calm,Calm,-,N/A,,Unknown,0,2012-10-16 11:15:00
5:35 AM,40.6,36.3,85,30.10,10.0,East,6.9,-,N/A,,Unknown,80,2012-10-16 11:35:00
6:15 AM,41.5,35.8,80,30.10,10.0,Calm,Calm,-,N/A,,Unknown,0,2012-10-16 12:15:00
6:35 AM,41.5,35.1,78,30.11,10.0,Calm,Calm,-,N/A,,Unknown,0,2012-10-16 12:35:00
6:55 AM,41.5,34.5,76,30.10,10.0,Calm,Calm,-,N/A,,Unknown,0,2012-10-16 12:55:00
7:35 AM,38.5,34.2,84,30.10,10.0,NE,4.6,-,N/A,,Unknown,50,2012-10-16 13:35:00
7:55 AM,41.5,35.2,78,30.11,10.0,NE,5.8,-,N/A,,Unknown,40,2012-10-16 13:55:00
8:15 AM,44.4,34.9,69,30.11,10.0,East,3.5,-,N/A,,Unknown,80,2012-10-16 14:15:00
8:35 AM,45.3,35.6,69,30.11,10.0,ENE,3.5,-,N/A,,Unknown,70,2012-10-16 14:35:00
8:55 AM,47.5,36.1,65,30.10,10.0,ENE,6.9,-,N/A,,Unknown,70,2012-10-16 14:55:00
9:15 AM,48.6,36.1,62,30.11,10.0,NE,6.9,-,N/A,,Unknown,40,2012-10-16 15:15:00
10:15 AM,54.5,37.4,52,30.09,10.0,East,4.6,-,N/A,,Unknown,80,2012-10-16 16:15:00
10:55 AM,57.4,37.8,48,30.07,10.0,East,3.5,-,N/A,,Unknown,90,2012-10-16 16:55:00
11:15 AM,58.5,37.4,45,30.06,10.0,East,3.5,-,N/A,,Unknown,100,2012-10-16 17:15:00
11:35 AM,60.8,38.3,43,30.04,10.0,ESE,3.5,-,N/A,,Unknown,110,2012-10-16 17:35:00
11:55 AM,62.1,38.3,41,30.03,10.0,East,3.5,-,N/A,,Unknown,100,2012-10-16 17:55:00
12:15 PM,64.4,35.6,34,30.01,10.0,ENE,3.5,-,N/A,,Unknown,70,2012-10-16 18:15:00
12:35 PM,65.7,34.7,32,29.99,10.0,Calm,Calm,-,N/A,,Unknown,0,2012-10-16 18:35:00
12:55 PM,67.1,34.9,30,29.98,10.0,Calm,Calm,-,N/A,,Unknown,0,2012-10-16 18:55:00
1:15 PM,68.0,33.6,28,29.95,10.0,Calm,Calm,-,N/A,,Unknown,0,2012-10-16 19:15:00
1:35 PM,69.4,32.9,26,29.94,10.0,East,3.5,-,N/A,,Unknown,90,2012-10-16 19:35:00
1:55 PM,70.2,33.6,26,29.92,10.0,SSE,4.6,-,N/A,,Unknown,150,2012-10-16 19:55:00
2:15 PM,71.6,32.0,23,29.90,10.0,Calm,Calm,-,N/A,,Unknown,0,2012-10-16 20:15:00
2:35 PM,71.8,32.0,23,29.88,10.0,Calm,Calm,-,N/A,,Unknown,0,2012-10-16 20:35:00
2:55 PM,72.7,32.5,23,29.87,10.0,Calm,Calm,-,N/A,,Unknown,0,2012-10-16 20:55:00
3:15 PM,73.4,32.2,22,29.85,10.0,Calm,Calm,-,N/A,,Unknown,0,2012-10-16 21:15:00
3:35 PM,73.8,32.0,22,29.84,10.0,WSW,3.5,-,N/A,,Unknown,250,2012-10-16 21:35:00
3:55 PM,73.8,32.2,22,29.84,10.0,Calm,Calm,-,N/A,,Unknown,0,2012-10-16 21:55:00
4:15 PM,74.1,32.7,22,29.83,10.0,Calm,Calm,-,N/A,,Unknown,0,2012-10-16 22:15:00
4:35 PM,73.9,32.2,22,29.81,10.0,Calm,Calm,-,N/A,,Unknown,0,2012-10-16 22:35:00
4:55 PM,74.3,32.7,22,29.80,10.0,South,3.5,-,N/A,,Unknown,180,2012-10-16 22:55:00
5:15 PM,74.5,32.2,21,29.79,10.0,South,3.5,-,N/A,,Unknown,180,2012-10-16 23:15:00
5:35 PM,74.3,32.9,22,29.79,10.0,SSW,3.5,-,N/A,,Unknown,200,2012-10-16 23:35:00
5:55 PM,74.3,33.8,23,29.79,10.0,Calm,Calm,-,N/A,,Unknown,0,2012-10-16 23:55:00
6:15 PM,73.4,34.7,24,29.79,10.0,SSW,4.6,-,N/A,,Unknown,210,2012-10-17 00:15:00
6:35 PM,71.1,35.8,27,29.78,10.0,SSW,4.6,-,N/A,,Unknown,200,2012-10-17 00:35:00
6:55 PM,68.0,37.4,33,29.78,10.0,SW,6.9,-,N/A,,Unknown,230,2012-10-17 00:55:00
7:15 PM,66.2,38.8,37,29.79,10.0,SSW,6.9,-,N/A,,Unknown,200,2012-10-17 01:15:00
7:35 PM,65.5,37.8,36,29.80,10.0,SSW,6.9,-,N/A,,Unknown,200,2012-10-17 01:35:00
7:55 PM,64.4,37.6,37,29.80,10.0,SSW,5.8,-,N/A,,Unknown,210,2012-10-17 01:55:00
8:15 PM,63.0,37.8,39,29.80,10.0,SW,3.5,-,N/A,,Unknown,230,2012-10-17 02:15:00
8:35 PM,64.6,35.2,34,29.80,10.0,WSW,3.5,-,N/A,,Unknown,240,2012-10-17 02:35:00
8:55 PM,63.9,35.6,35,29.80,10.0,Calm,Calm,-,N/A,,Unknown,0,2012-10-17 02:55:00
9:15 PM,61.7,37.2,40,29.80,10.0,Calm,Calm,-,N/A,,Unknown,0,2012-10-17 03:15:00
9:35 PM,59.9,40.6,49,29.80,10.0,NE,4.6,-,N/A,,Unknown,50,2012-10-17 03:35:00
9:55 PM,59.9,41.5,51,29.80,10.0,NNE,4.6,-,N/A,,Unknown,30,2012-10-17 03:55:00
10:15 PM,59.9,41.9,51,29.81,10.0,North,5.8,-,N/A,,Unknown,10,2012-10-17 04:15:00
10:55 PM,61.7,38.7,43,29.82,10.0,West,4.6,-,N/A,,Unknown,280,2012-10-17 04:55:00
11:15 PM,65.7,38.7,37,29.83,10.0,WNW,19.6,25.3,N/A,,Unknown,300,2012-10-17 05:15:00
11:35 PM,66.2,39.6,38,29.84,10.0,WNW,18.4,31.1,N/A,,Unknown,300,2012-10-17 05:35:00
11:55 PM,64.9,41.2,42,29.85,10.0,WNW,18.4,28.8,N/A,,Unknown,290,2012-10-17 05:55:00